Regional Weather Roundup
Issued by NWS

Home | Current Version | Previous Version | Text Only | Print | Product List | Glossary Off
Versions: 1 2 3 4 5 6 7 8 9 10 11 12 13 14 15 16 17 18 19 20 21 22 23 24 25 26 27 28 29 30 31 32 33 34 35 36 37 38 39 40 41 42 43 44 45 46 47 48 49 50

000
ASUS43 KMKX 011959
RWRWI

WISCONSIN REGIONAL WEATHER ROUNDUP
NATIONAL WEATHER SERVICE MILWAUKEE/SULLIVAN WI
200 PM CST SUN MAR 01 2015

NOTE: "FAIR" INDICATES FEW OR NO CLOUDS BELOW 12,000 FEET WITH NO
SIGNIFICANT WEATHER AND/OR OBSTRUCTIONS TO VISIBILITY.

WIZ001-002-006>008-014>016-023>028-012100-
NORTHWEST WISCONSIN

CITY           SKY/WX    TMP DP  RH WIND       PRES   REMARKS
SUPERIOR ARPT  SUNNY     25   7  46 W18G25    30.14F WCI  11
ASHLAND        MOSUNNY   26   6  42 SW14G22   30.11F WCI  14
HAYWARD        SUNNY     24   4  42 W8        30.11F WCI  15
SIREN          SUNNY     23   7  50 W14G21    30.17F WCI  11
CUMBERLAND     SUNNY     23   5  46 W12       30.15F WCI  12
RICE LAKE      SUNNY     23   6  46 W12       30.18F WCI  12
CHETEK         SUNNY     24   8  49 W7        30.17F WCI  16
LADYSMITH      PTSUNNY   23  10  57 SW12      30.15F WCI  11
EAU CLAIRE     NOT AVBL
MENOMONIE      SUNNY     26   6  43 W13       30.20F WCI  15
NEW RICHMOND   SUNNY     24   7  48 W14       30.20F WCI  12
OSCEOLA        SUNNY     25   8  49 W16       30.24F WCI  12
$$

WIZ003>005-009-010-017-018-012100-
NORTH CENTRAL WISCONSIN

CITY           SKY/WX    TMP DP  RH WIND       PRES   REMARKS
MANITOWISH WTR FLURRIES  18   8  65 W14G22    30.06F WCI   4
ARBOR VITAE    LGT SNOW  19  11  71 SW14      30.07F WCI   6
WOODRUFF       LGT SNOW  19  11  71 SW14      30.07F WCI   6
RHINELANDER    CLOUDY    18  10  71 W12G21    30.08F WCI   5
EAGLE RIVER    FLURRIES  18   8  66 W18       30.05F WCI   2
LAND O LAKES   FLURRIES  20  10  66 W7G18     30.05F WCI  11
PHILLIPS       CLOUDY    19  10  68 SW9       30.09F WCI   7
TOMAHAWK       LGT SNOW  19  10  70 CALM      30.11F
MEDFORD        LGT SNOW  17  11  77 W12       30.13F WCI   4
MERRILL        FLURRIES  19  11  73 W15       30.12F WCI   5
$$

WIZ029-030-035-036-043>047-012100-
CENTRAL WISCONSIN

CITY           SKY/WX    TMP DP  RH WIND       PRES   REMARKS
WAUSAU         CLOUDY    19  11  70 W15       30.13F HAZE    WCI   5
MOSINEE        FLURRIES  19  14  79 SW13      30.16F WCI   7
MARSHFIELD     LGT SNOW  19  13  77 W14       30.16F WCI   6
STEVENS POINT  CLOUDY    19  12  72 W7        30.17F WCI  10
WAUPACA        PTSUNNY   30  15  53 SW14G21   30.18F WCI  20
WAUTOMA        NOT AVBL
WISC RAPIDS    CLOUDY    22  12  65 W10       30.19F WCI  11
CAMP DOUGLAS   NOT AVBL
$$

WIZ011>013-019>022-031-037>040-048>050-012100-
NORTHEAST WISCONSIN

CITY           SKY/WX    TMP DP  RH WIND       PRES   REMARKS
ANTIGO         FLURRIES  17  11  78 SW14      30.10F WCI   3
SHAWANO        CLOUDY    28  15  58 SW9       30.16F WCI  19
OCONTO         CLOUDY    26  15  61 SW14G21   30.17F WCI  15
STURGEON BAY   PTSUNNY   27  14  59 SW15      30.17F WCI  15
GREEN BAY      CLOUDY    27  16  63 SW13      30.17F WCI  16
MANITOWOC      PTSUNNY   28  16  59 SW15      30.21F WCI  17
APPLETON       CLOUDY    27  16  63 SW16      30.18F WCI  14
CLINTONVILLE   CLOUDY    28  16  59 SW12      30.16F WCI  18
OSHKOSH        CLOUDY    26  15  63 SW14      30.18F WCI  14
$$

WIZ032>034-041-042-053>061-012100-
SOUTHWEST WISCONSIN

CITY           SKY/WX    TMP DP  RH WIND       PRES   REMARKS
LA CROSSE      SUNNY     27  13  55 W16       30.25F WCI  15
SPARTA         CLOUDY    24  15  68 W10G17    30.24F WCI  13
VIROQUA        CLOUDY    24  17  72 W15       30.21F WCI  12
BOSCOBEL       MIX PCPN  28  15  58 W12       30.27F WCI  18
PRAIRIE DU CHI CLOUDY    26  15  63 W12       30.29S WCI  15
PLATTEVILLE    MOSUNNY   26  17  71 SW16      30.27F WCI  13
$$

WIZ056-057-062-063-064-067-068-012100-
SOUTH CENTRAL WISCONSIN

CITY           SKY/WX    TMP DP  RH WIND       PRES   REMARKS
REEDSBURG      PTSUNNY   26  16  66 SW13      30.22F WCI  15
BARABOO/DELLS  PTSUNNY   26  15  64 SW13G20   30.20F WCI  15
LONE ROCK      NOT AVBL
MINERAL POINT  MOSUNNY   28  18  64 W13       30.24F WCI  18
MADISON        CLOUDY    27  15  61 SW9       30.23F WCI  18
MIDDLETON      PTSUNNY   29  15  55 SW10      30.23F WCI  19
WATERTOWN      MOSUNNY   25  15  67 SW10G18   30.23F WCI  14
MONROE         PTSUNNY   27  18  69 SW14      30.25F WCI  15
JANESVILLE     PTSUNNY   27  16  63 W10       30.27F WCI  17
$$

WIZ051-052-058>065-066-070>072-012100-
SOUTHEAST WISCONSIN

CITY           SKY/WX    TMP DP  RH WIND       PRES   REMARKS
MILWAUKEE      MOSUNNY   27  14  58 SW10      30.24F WCI  17
WAUKESHA       MOSUNNY   25  12  58 SW12G17   30.24F WCI  14
MILWAUKEE/TIMM NOT AVBL
RACINE         SUNNY     25  13  60 SW13G20   30.27F WCI  14
BURLINGTON     SUNNY     24  13  62 SW12      30.27F WCI  13
KENOSHA        SUNNY     25  15  66 W13       30.26F WCI  14
FOND DU LAC    PTSUNNY   27  15  61 SW9G21    30.19F WCI  18
SHEBOYGAN      MOSUNNY   26  15  63 SW14      30.20F WCI  14
WEST BEND      MOSUNNY   27  14  59 SW9       30.21F WCI  17
JUNEAU         PTSUNNY   24  15  67 SW14      30.23F WCI  12
$$

LSZ147-162-012100-
LAKE SUPERIOR

STATION/POSITION TIME  TEMP    WIND        PRES    WAVE
                       AIR SEA DIR/SP/G            HT/PER
                 (UTC) (F)     (DEG/KT/KT) (MB)    (FT/S)
DEVILS ISLAND    1900   20     240/ 17/ 21 1020.6F
PORT WING        1900   22     240/ 12/ 18 1020.7F
SAXON HARBOR     1900   24     280/  6/ 13 1020.0F
$$

LMZ867-665-643>646-012100-
LAKE MICHIGAN

STATION/POSITION TIME  TEMP    WIND        PRES    WAVE
                       AIR SEA DIR/SP/G            HT/PER
                 (UTC) (F)     (DEG/KT/KT) (MB)    (FT/S)
NORTHPORT PIER   1908   26     220/  4/ 17 1021.3F
SISTER BAY       1943   27     220/ 16/ 20   N/A
KEWAUNEE LAKESHO 1900   26     220/  8/ 12 1022.2F
SHEBOYGAN LAKESH 1800   23     220/  8/ 12 1026.6F
PORT WASHINGTON  1920   28     250/  9/ 19 1024.7F
MILWAUKEE LAKESH 1900   26     280/  5/  7   N/A
KENOSHA   LAKESH 1900   25     240/ 10/ 14 1025.7F
$$

TC  - TEMPERATURE IN CELSIUS
VSB - VISIBILITY IN STATUTE MILES
WCI - WIND CHILL INDEX
HX  - HEAT INDEX




USA.gov is the U.S. government's official web portal to all federal, state and local government web resources and services.